John A. Osborne Airport

Airport
ICAO code: 
TRPG
IATA Code: 
MNI
Summary
ICAO Region: 
CARSAM
Location: 
Gerald's, Montserrat
Serving: 
Montserrat
Elevation: 
550 ft
Coordinates: 
Aerial View: 
16° 47' 29.148" N, 62° 11' 35.992" W
Metar
Observation
TRPG 281400Z 08017KT 9999 FEW020 29/23 Q1019
Station
JOHN OSBORNE APT
Date/Time
2022-06-28 14:00:00
Wind direction
80°
Wind speed
17 kts
Lowest cloud amount
few clouds
Temperature
29°C
Dew point
23°C
Humidity
70%
QNH
1019 hPa
Weather condition
n/a

John A. Osborne Airport is a small airport located near the village of Gerald's on the island of Montserrat, a British Overseas Territory in the Caribbean.

Climatology

Tropical savannah climate (Köppen climate classification Aw)

Runways

Designator Length Width Surface Rops
10/28 600 0 ASP No/No
Airport map: 
Aerial View: 

SKYbrary Partners:

Safety knowledge contributed by: